"startDT [UTC]","vpos","CH4 [ppm]","stdev(CH4) [ppm]","CO2 [ppm]","stdev(CO2) [ppm]","H2O [ppm]","stdev(H2O)","p_LGR [torr]","T_LGR [C]","mt1_LGR [us]","mt2_LGR [us]","T_ECpre [C]","T_EC1 [C]","T_EC2 [C]","p_inlet [hPa]","p_in [hPa]","p_out [hPa]","T_inlet [C]","RH_inlet [%]","dwpt_inlet [C]","T_vent [C]","RH_vent [%]","dwpt_vent [C]","flow_vent [l min-1]","flow_inlet [l min-1]","dwpt_sample [C]","T_room [C]"
2012-12-26 00:00:00,0.0,1.9169,0.0011,-1.00,0.00,-1.0,0.0,138.19,24.55,24.61,36.48,0.04,-272.74,-272.74,-36,548,-930,19.4,1.4,-35.2,19.5,1.4,-34.7,5.73,2.41,-33.6,24.4
2012-12-26 00:01:00,0.0,1.9172,0.0009,-1.00,0.00,-1.0,0.0,138.19,24.56,24.61,36.47,0.04,-272.74,-272.74,-37,548,-930,19.4,1.4,-35.2,19.5,1.4,-34.8,5.73,2.38,-33.6,24.4
2012-12-26 00:02:00,0.0,1.9172,0.0010,-1.00,0.00,-1.0,0.0,138.19,24.56,24.61,36.48,0.04,-272.74,-272.75,-36,548,-930,19.4,1.3,-35.4,19.5,1.4,-34.8,5.73,2.40,-33.6,24.4
2012-12-26 00:03:00,0.0,1.9181,0.0010,-1.00,0.00,-1.0,0.0,138.19,24.56,24.61,36.47,0.04,-272.74,-272.75,-36,548,-930,19.4,1.3,-35.5,19.5,1.4,-35.1,5.73,2.46,-33.6,24.4
2012-12-26 00:04:00,0.0,1.9188,0.0009,-1.00,0.00,-1.0,0.0,138.19,24.56,24.61,36.47,0.04,-272.74,-272.74,-36,548,-930,19.4,1.3,-35.6,19.5,1.4,-35.1,5.73,2.48,-33.5,24.5
2012-12-26 00:05:00,0.0,1.9177,0.0008,-1.00,0.00,-1.0,0.0,138.19,24.56,24.61,36.47,0.04,-272.74,-272.74,-36,548,-930,19.4,1.3,-35.8,19.5,1.3,-35.3,5.73,2.47,-33.5,24.5
2012-12-26 00:06:00,0.0,1.9173,0.0010,-1.00,0.00,-1.0,0.0,138.19,24.55,24.61,36.47,0.04,-272.74,-272.75,-36,548,-930,19.4,1.3,-35.8,19.5,1.3,-35.4,5.73,2.43,-33.5,24.5
2012-12-26 00:07:00,0.0,1.9171,0.0008,-1.00,0.00,-1.0,0.0,138.19,24.56,24.61,36.47,0.04,-272.74,-272.74,-36,548,-930,19.4,1.3,-35.8,19.5,1.3,-35.4,5.73,2.40,-33.5,24.4
2012-12-26 00:08:00,0.0,1.9174,0.0009,-1.00,0.00,-1.0,0.0,138.19,24.56,24.61,36.47,0.04,-272.74,-272.74,-36,548,-930,19.4,1.3,-35.8,19.5,1.3,-35.2,5.73,2.39,-33.5,24.5
2012-12-26 00:09:00,0.0,1.9176,0.0009,-1.00,0.00,-1.0,0.0,138.19,24.57,24.61,36.47,0.04,-272.74,-272.74,-36,548,-930,19.4,1.3,-35.7,19.5,1.3,-35.2,5.73,2.43,-33.5,24.5
2012-12-26 00:10:00,0.0,1.9172,0.0009,-1.00,0.00,-1.0,0.0,138.19,24.57,24.61,36.48,0.04,-272.74,-272.74,-37,548,-930,19.4,1.3,-35.6,19.5,1.3,-35.2,5.73,2.46,-33.5,24.5
2012-12-26 00:11:00,0.0,1.9190,0.0011,-1.00,0.00,-1.0,0.0,138.19,24.57,24.61,36.47,0.04,-272.74,-272.74,-36,548,-930,19.4,1.3,-35.6,19.5,1.3,-35.1,5.73,2.48,-33.5,24.5
2012-12-26 00:12:00,0.0,1.9171,0.0010,-1.00,0.00,-1.0,0.0,138.19,24.56,24.61,36.48,0.04,-272.74,-272.75,-36,548,-930,19.4,1.3,-35.6,19.5,1.3,-35.2,5.73,2.45,-33.5,24.5
2012-12-26 00:13:00,0.0,1.9177,0.0011,-1.00,0.00,-1.0,0.0,138.19,24.56,24.61,36.47,0.04,-272.74,-272.74,-36,548,-930,19.4,1.3,-35.6,19.5,1.3,-35.2,5.73,2.41,-33.5,24.5
2012-12-26 00:14:00,0.0,1.9175,0.0008,-1.00,0.00,-1.0,0.0,138.19,24.56,24.61,36.48,0.04,-272.75,-272.74,-36,548,-930,19.4,1.3,-35.4,19.5,1.4,-35.0,5.73,2.38,-33.5,24.5
2012-12-26 00:15:00,0.0,1.9164,0.0010,-1.00,0.00,-1.0,0.0,138.19,24.56,24.61,36.47,0.04,-272.74,-272.74,-36,548,-930,19.4,1.3,-35.4,19.5,1.4,-34.9,5.73,2.41,-33.5,24.5
2012-12-26 00:16:00,0.0,1.9158,0.0008,-1.00,0.00,-1.0,0.0,138.19,24.57,24.61,36.47,0.04,-272.74,-272.75,-36,548,-930,19.4,1.3,-35.4,19.5,1.4,-35.0,5.73,2.45,-33.5,24.4
2012-12-26 00:17:00,0.0,1.9157,0.0010,-1.00,0.00,-1.0,0.0,138.19,24.58,24.61,36.47,0.04,-272.74,-272.74,-36,548,-930,19.4,1.3,-35.3,19.5,1.4,-34.8,5.73,2.48,-33.5,24.5
2012-12-26 00:18:00,0.0,1.9159,0.0008,-1.00,0.00,-1.0,0.0,138.19,24.58,24.61,36.47,0.04,-272.74,-272.74,-36,548,-930,19.4,1.3,-35.2,19.5,1.4,-34.8,5.73,2.47,-33.5,24.5
2012-12-26 00:19:00,0.0,1.9162,0.0008,-1.00,0.00,-1.0,0.0,138.19,24.58,24.61,36.47,0.04,-272.74,-272.74,-36,548,-930,19.4,1.3,-35.4,19.5,1.4,-34.9,5.73,2.43,-33.5,24.5
2012-12-26 00:20:00,0.0,1.9169,0.0009,-1.00,0.00,-1.0,0.0,138.19,24.57,24.61,36.47,0.04,-272.74,-272.74,-36,548,-930,19.4,1.3,-35.4,19.5,1.4,-34.9,5.73,2.39,-33.5,24.5
2012-12-26 00:21:00,0.0,1.9165,0.0009,-1.00,0.00,-1.0,0.0,138.19,24.57,24.61,36.48,0.04,-272.74,-272.74,-36,548,-930,19.4,1.3,-35.3,19.5,1.4,-35.0,5.73,2.39,-33.5,24.4
2012-12-26 00:22:00,0.0,1.9161,0.0010,-1.00,0.00,-1.0,0.0,138.19,24.57,24.61,36.47,0.04,-272.74,-272.74,-36,548,-930,19.4,1.3,-35.4,19.5,1.4,-34.9,5.73,2.44,-33.4,24.4
2012-12-26 00:23:00,0.0,1.9157,0.0011,-1.00,0.00,-1.0,0.0,138.19,24.56,24.61,36.47,0.04,-272.75,-272.74,-36,548,-930,19.4,1.3,-35.3,19.5,1.4,-34.7,5.73,2.48,-33.4,24.4
2012-12-26 00:24:00,0.0,1.9155,0.0010,-1.00,0.00,-1.0,0.0,138.19,24.56,24.61,36.47,0.04,-272.74,-272.74,-36,548,-930,19.4,1.4,-35.2,19.5,1.4,-34.7,5.73,2.48,-33.4,24.4
2012-12-26 00:25:00,0.0,1.9157,0.0010,-1.00,0.00,-1.0,0.0,138.19,24.57,24.61,36.48,0.04,-272.74,-272.74,-36,548,-930,19.4,1.4,-35.2,19.5,1.4,-34.8,5.73,2.45,-33.4,24.4
2012-12-26 00:26:00,0.0,1.9156,0.0009,-1.00,0.00,-1.0,0.0,138.19,24.57,24.61,36.47,0.04,-272.74,-272.75,-36,548,-930,19.4,1.4,-35.1,19.5,1.4,-34.8,5.73,2.40,-33.4,24.4
2012-12-26 00:27:00,0.0,1.9157,0.0010,-1.00,0.00,-1.0,0.0,138.19,24.58,24.61,36.47,0.04,-272.74,-272.74,-36,548,-930,19.4,1.4,-35.2,19.5,1.4,-34.6,5.73,2.39,-33.4,24.4
2012-12-26 00:28:00,0.0,1.9158,0.0008,-1.00,0.00,-1.0,0.0,138.19,24.57,24.62,36.47,0.04,-272.74,-272.74,-36,548,-930,19.4,1.4,-35.2,19.5,1.4,-34.6,5.73,2.42,-33.4,24.4
2012-12-26 00:29:00,0.0,1.9168,0.0009,-1.00,0.00,-1.0,0.0,138.19,24.57,24.61,36.47,0.04,-272.74,-272.74,-36,548,-930,19.4,1.4,-35.2,19.5,1.4,-34.6,5.73,2.47,-33.4,24.4
2012-12-26 00:30:00,0.0,1.9167,0.0010,-1.00,0.00,-1.0,0.0,138.19,24.57,24.61,36.47,0.04,-272.75,-272.74,-36,548,-930,19.4,1.4,-35.2,19.5,1.4,-34.5,5.73,2.48,-33.4,24.4
2012-12-26 00:31:00,0.0,1.9163,0.0010,-1.00,0.00,-1.0,0.0,138.19,24.58,24.61,36.47,0.04,-272.74,-272.74,-36,548,-930,19.4,1.4,-35.2,19.5,1.4,-34.7,5.73,2.46,-33.4,24.4
2012-12-26 00:32:00,0.0,1.9160,0.0009,-1.00,0.00,-1.0,0.0,138.19,24.58,24.61,36.47,0.04,-272.74,-272.74,-36,548,-930,19.4,1.4,-35.2,19.5,1.4,-34.8,5.73,2.41,-33.4,24.4
2012-12-26 00:33:00,0.0,1.9160,0.0008,-1.00,0.00,-1.0,0.0,138.19,24.58,24.61,36.47,0.04,-272.75,-272.74,-36,548,-930,19.4,1.4,-35.2,19.5,1.4,-34.7,5.73,2.39,-33.4,24.4
2012-12-26 00:34:00,0.0,1.9157,0.0010,-1.00,0.00,-1.0,0.0,138.19,24.59,24.61,36.47,0.04,-272.74,-272.74,-36,548,-930,19.4,1.4,-35.1,19.4,1.4,-34.8,5.73,2.40,-33.4,24.4
2012-12-26 00:35:00,0.0,1.9161,0.0008,-1.00,0.00,-1.0,0.0,138.19,24.60,24.61,36.47,0.04,-272.74,-272.74,-36,548,-930,19.4,1.3,-35.2,19.5,1.4,-34.8,5.73,2.45,-33.4,24.4
2012-12-26 00:36:00,0.0,1.9159,0.0011,-1.00,0.00,-1.0,0.0,138.19,24.60,24.61,36.48,0.04,-272.74,-272.74,-36,548,-930,19.4,1.4,-35.2,19.5,1.4,-34.8,5.73,2.48,-33.4,24.4
2012-12-26 00:37:00,0.0,1.9162,0.0010,-1.00,0.00,-1.0,0.0,138.19,24.59,24.61,36.48,0.04,-272.74,-272.74,-36,548,-930,19.4,1.3,-35.4,19.5,1.4,-34.8,5.73,2.47,-33.4,24.4
2012-12-26 00:38:00,0.0,1.9161,0.0010,-1.00,0.00,-1.0,0.0,138.19,24.60,24.61,36.47,0.04,-272.74,-272.74,-36,548,-930,19.4,1.3,-35.4,19.5,1.4,-34.9,5.73,2.43,-33.4,24.4
2012-12-26 00:39:00,0.0,1.9160,0.0009,-1.00,0.00,-1.0,0.0,138.19,24.61,24.61,36.48,0.04,-272.74,-272.74,-36,548,-930,19.4,1.3,-35.3,19.5,1.4,-34.8,5.73,2.39,-33.4,24.4
2012-12-26 00:40:00,0.0,1.9163,0.0008,-1.00,0.00,-1.0,0.0,138.19,24.61,24.61,36.48,0.04,-272.74,-272.74,-36,548,-930,19.4,1.4,-35.2,19.5,1.4,-34.7,5.73,2.39,-33.4,24.5
2012-12-26 00:41:00,0.0,1.9156,0.0010,-1.00,0.00,-1.0,0.0,138.19,24.61,24.62,36.48,0.04,-272.74,-272.74,-36,548,-930,19.4,1.4,-35.1,19.5,1.4,-34.8,5.73,2.44,-33.4,24.5
2012-12-26 00:42:00,0.0,1.9159,0.0007,-1.00,0.00,-1.0,0.0,138.19,24.62,24.61,36.47,0.04,-272.74,-272.74,-36,548,-930,19.4,1.4,-35.2,19.5,1.4,-34.8,5.73,2.48,-33.4,24.4
2012-12-26 00:43:00,0.0,1.9157,0.0010,-1.00,0.00,-1.0,0.0,138.19,24.62,24.62,36.47,0.04,-272.74,-272.74,-36,548,-930,19.4,1.4,-35.2,19.5,1.4,-34.7,5.73,2.48,-33.4,24.4
2012-12-26 00:44:00,0.0,1.9156,0.0009,-1.00,0.00,-1.0,0.0,138.19,24.62,24.61,36.48,0.04,-272.74,-272.74,-36,548,-930,19.4,1.4,-35.1,19.5,1.4,-34.6,5.73,2.44,-33.3,24.5
2012-12-26 00:45:00,0.0,1.9155,0.0009,-1.00,0.00,-1.0,0.0,138.19,24.61,24.61,36.47,0.04,-272.74,-272.74,-36,548,-930,19.4,1.4,-35.0,19.5,1.4,-34.5,5.73,2.39,-33.3,24.5
2012-12-26 00:46:00,0.0,1.9156,0.0008,-1.00,0.00,-1.0,0.0,138.19,24.62,24.61,36.47,0.04,-272.75,-272.74,-36,548,-930,19.4,1.4,-34.9,19.5,1.4,-34.5,5.73,2.39,-33.3,24.5
2012-12-26 00:47:00,0.0,1.9156,0.0009,-1.00,0.00,-1.0,0.0,138.19,24.62,24.61,36.47,0.04,-272.74,-272.74,-36,548,-930,19.4,1.4,-34.8,19.5,1.5,-34.4,5.73,2.43,-33.3,24.5
2012-12-26 00:48:00,0.0,1.9155,0.0008,-1.00,0.00,-1.0,0.0,138.19,24.63,24.61,36.48,0.04,-272.74,-272.74,-36,548,-930,19.4,1.4,-34.8,19.5,1.5,-34.4,5.73,2.48,-33.3,24.4
2012-12-26 00:49:00,0.0,1.9161,0.0011,-1.00,0.00,-1.0,0.0,138.19,24.62,24.61,36.47,0.04,-272.74,-272.74,-36,548,-930,19.4,1.4,-34.8,19.5,1.5,-34.4,5.73,2.48,-33.3,24.5
2012-12-26 00:50:00,0.0,1.9158,0.0008,-1.00,0.00,-1.0,0.0,138.19,24.62,24.61,36.48,0.04,-272.74,-272.74,-36,548,-930,19.4,1.4,-34.7,19.5,1.5,-34.3,5.73,2.44,-33.3,24.4
2012-12-26 00:51:00,0.0,1.9151,0.0009,-1.00,0.00,-1.0,0.0,138.19,24.62,24.61,36.47,0.04,-272.74,-272.74,-36,548,-930,19.4,1.4,-34.6,19.5,1.5,-34.2,5.73,2.39,-33.3,24.5
2012-12-26 00:52:00,0.0,1.9147,0.0009,-1.00,0.00,-1.0,0.0,138.19,24.63,24.61,36.47,0.04,-272.74,-272.74,-36,548,-930,19.4,1.4,-34.6,19.5,1.5,-34.1,5.73,2.39,-33.3,24.4
2012-12-26 00:53:00,0.0,1.9146,0.0010,-1.00,0.00,-1.0,0.0,138.19,24.63,24.62,36.48,0.04,-272.74,-272.74,-36,548,-930,19.4,1.5,-34.4,19.4,1.5,-34.0,5.73,2.42,-33.3,24.4
2012-12-26 00:54:00,0.0,1.9158,0.0011,-1.00,0.00,-1.0,0.0,138.19,24.64,24.61,36.48,0.04,-272.74,-272.74,-36,548,-930,19.4,1.5,-34.4,19.5,1.5,-33.9,5.73,2.47,-33.3,24.4
2012-12-26 00:55:00,0.0,1.9164,0.0007,-1.00,0.00,-1.0,0.0,138.19,24.64,24.61,36.47,0.04,-272.74,-272.74,-36,548,-930,19.4,1.4,-34.6,19.5,1.5,-34.1,5.73,2.48,-33.3,24.5
2012-12-26 00:56:00,0.0,1.9157,0.0008,-1.00,0.00,-1.0,0.0,138.19,24.63,24.61,36.47,0.04,-272.74,-272.74,-36,548,-930,19.4,1.4,-34.6,19.5,1.5,-34.2,5.73,2.45,-33.3,24.5
2012-12-26 00:57:00,0.0,1.9157,0.0008,-1.00,0.00,-1.0,0.0,138.19,24.63,24.61,36.47,0.04,-272.74,-272.74,-36,548,-930,19.4,1.4,-34.6,19.5,1.5,-34.2,5.73,2.41,-33.3,24.4
2012-12-26 00:58:00,0.0,1.9163,0.0011,-1.00,0.00,-1.0,0.0,138.19,24.64,24.62,36.47,0.04,-272.74,-272.74,-36,548,-930,19.4,1.4,-34.6,19.5,1.5,-34.2,5.73,2.38,-33.3,24.5
2012-12-26 00:59:00,0.0,1.9171,0.0008,-1.00,0.00,-1.0,0.0,138.19,24.64,24.62,36.47,0.04,-272.74,-272.74,-36,548,-930,19.4,1.4,-34.8,19.5,1.5,-34.4,5.73,2.41,-33.3,24.4
2012-12-26 01:00:00,0.0,1.9179,0.0008,-1.00,0.00,-1.0,0.0,138.19,24.64,24.61,36.48,0.04,-272.74,-272.74,-36,548,-930,19.4,1.4,-34.8,19.5,1.5,-34.4,5.73,2.47,-33.3,24.4
2012-12-26 01:01:00,0.0,1.9175,0.0009,-1.00,0.00,-1.0,0.0,138.19,24.64,24.61,36.48,0.04,-272.74,-272.74,-36,548,-930,19.4,1.4,-34.8,19.5,1.5,-34.3,5.73,2.49,-33.3,24.4
2012-12-26 01:02:00,0.0,1.9172,0.0010,-1.00,0.00,-1.0,0.0,138.19,24.64,24.61,36.47,0.04,-272.74,-272.74,-36,548,-930,19.4,1.4,-34.8,19.5,1.5,-34.3,5.73,2.45,-33.3,24.5
2012-12-26 01:03:00,0.0,1.9167,0.0012,-1.00,0.00,-1.0,0.0,138.19,24.65,24.61,36.47,0.04,-272.74,-272.74,-36,548,-930,19.4,1.4,-34.6,19.5,1.5,-34.2,5.73,2.40,-33.3,24.5
2012-12-26 01:04:00,0.0,1.9162,0.0009,-1.00,0.00,-1.0,0.0,138.19,24.65,24.61,36.48,0.04,-272.74,-272.74,-36,548,-930,19.4,1.4,-34.7,19.5,1.5,-34.2,5.73,2.38,-33.2,24.5
2012-12-26 01:05:00,0.0,1.9161,0.0011,-1.00,0.00,-1.0,0.0,138.19,24.65,24.61,36.48,0.04,-272.74,-272.74,-36,548,-930,19.4,1.4,-34.7,19.5,1.5,-34.3,5.73,2.42,-33.3,24.5
2012-12-26 01:06:00,0.0,1.9148,0.0010,-1.00,0.00,-1.0,0.0,138.19,24.66,24.61,36.47,0.04,-272.74,-272.74,-36,548,-930,19.4,1.4,-34.5,19.5,1.5,-34.0,5.73,2.47,-33.2,24.5
2012-12-26 01:07:00,0.0,1.9147,0.0008,-1.00,0.00,-1.0,0.0,138.19,24.65,24.61,36.47,0.04,-272.74,-272.74,-36,548,-930,19.4,1.5,-34.2,19.5,1.6,-33.7,5.73,2.48,-33.3,24.5
2012-12-26 01:08:00,0.0,1.9142,0.0008,-1.00,0.00,-1.0,0.0,138.19,24.65,24.61,36.47,0.04,-272.74,-272.74,-36,548,-930,19.4,1.5,-34.1,19.5,1.6,-33.6,5.73,2.45,-33.2,24.4
2012-12-26 01:09:00,0.0,1.9142,0.0008,-1.00,0.00,-1.0,0.0,138.19,24.65,24.61,36.47,0.04,-272.74,-272.74,-36,548,-930,19.4,1.5,-34.0,19.5,1.6,-33.5,5.73,2.39,-33.2,24.4
2012-12-26 01:10:00,0.0,1.9145,0.0009,-1.00,0.00,-1.0,0.0,138.19,24.65,24.62,36.47,0.04,-272.74,-272.74,-36,548,-930,19.4,1.5,-33.9,19.5,1.6,-33.4,5.73,2.39,-33.2,24.4
2012-12-26 01:11:00,0.0,1.9157,0.0008,-1.00,0.00,-1.0,0.0,138.19,24.66,24.61,36.47,0.04,-272.74,-272.74,-36,548,-930,19.4,1.6,-33.8,19.5,1.6,-33.3,5.73,2.43,-33.2,24.5
2012-12-26 01:12:00,0.0,1.9150,0.0008,-1.00,0.00,-1.0,0.0,138.19,24.66,24.61,36.47,0.04,-272.74,-272.74,-36,548,-930,19.4,1.5,-33.8,19.5,1.6,-33.4,5.73,2.48,-33.2,24.5
2012-12-26 01:13:00,0.0,1.9148,0.0010,-1.00,0.00,-1.0,0.0,138.19,24.66,24.62,36.47,0.04,-272.75,-272.74,-36,548,-930,19.4,1.5,-33.8,19.5,1.6,-33.5,5.73,2.48,-33.2,24.5
2012-12-26 01:14:00,0.0,1.9146,0.0009,-1.00,0.00,-1.0,0.0,138.19,24.66,24.61,36.47,0.04,-272.74,-272.74,-37,548,-930,19.4,1.5,-33.8,19.5,1.6,-33.4,5.73,2.44,-33.2,24.5
2012-12-26 01:15:00,0.0,1.9137,0.0009,-1.00,0.00,-1.0,0.0,138.19,24.67,24.62,36.47,0.04,-272.74,-272.74,-36,548,-930,19.4,1.6,-33.7,19.5,1.6,-33.3,5.73,2.39,-33.2,24.4
2012-12-26 01:16:00,0.0,1.9139,0.0009,-1.00,0.00,-1.0,0.0,138.19,24.67,24.61,36.48,0.04,-272.74,-272.74,-36,548,-930,19.4,1.6,-33.5,19.5,1.7,-33.0,5.73,2.39,-33.2,24.5
2012-12-26 01:17:00,0.0,1.9142,0.0009,-1.00,0.00,-1.0,0.0,138.19,24.66,24.61,36.47,0.04,-272.74,-272.74,-36,548,-930,19.4,1.6,-33.5,19.5,1.7,-32.9,5.73,2.43,-33.2,24.5
2012-12-26 01:18:00,0.0,1.9141,0.0008,-1.00,0.00,-1.0,0.0,138.19,24.65,24.61,36.48,0.04,-272.74,-272.74,-37,548,-930,19.4,1.6,-33.4,19.5,1.7,-33.0,5.73,2.48,-33.2,24.5
2012-12-26 01:19:00,0.0,1.9144,0.0009,-1.00,0.00,-1.0,0.0,138.19,24.65,24.61,36.47,0.04,-272.74,-272.74,-37,548,-930,19.4,1.6,-33.3,19.5,1.7,-33.0,5.73,2.47,-33.2,24.5
2012-12-26 01:20:00,0.0,1.9142,0.0009,-1.00,0.00,-1.0,0.0,138.19,24.65,24.61,36.47,0.04,-272.74,-272.74,-36,548,-930,19.4,1.6,-33.4,19.5,1.7,-32.9,5.73,2.43,-33.2,24.5
2012-12-26 01:21:00,0.0,1.9140,0.0009,-1.00,0.00,-1.0,0.0,138.19,24.65,24.62,36.47,0.04,-272.74,-272.74,-36,548,-930,19.4,1.6,-33.4,19.5,1.7,-32.9,5.73,2.39,-33.2,24.5
2012-12-26 01:22:00,0.0,1.9147,0.0008,-1.00,0.00,-1.0,0.0,138.19,24.66,24.61,36.47,0.04,-272.74,-272.74,-36,548,-930,19.4,1.6,-33.3,19.5,1.7,-32.9,5.73,2.39,-33.2,24.5
2012-12-26 01:23:00,0.0,1.9147,0.0008,-1.00,0.00,-1.0,0.0,138.19,24.66,24.61,36.47,0.04,-272.74,-272.74,-37,548,-930,19.4,1.6,-33.3,19.5,1.7,-32.9,5.73,2.44,-33.1,24.5
2012-12-26 01:24:00,0.0,1.9149,0.0008,-1.00,0.00,-1.0,0.0,138.19,24.65,24.61,36.47,0.04,-272.74,-272.74,-36,548,-930,19.4,1.6,-33.3,19.5,1.7,-32.9,5.73,2.49,-33.1,24.5
2012-12-26 01:25:00,0.0,1.9145,0.0009,-1.00,0.00,-1.0,0.0,138.19,24.65,24.62,36.47,0.04,-272.74,-272.74,-36,548,-930,19.4,1.6,-33.3,19.5,1.7,-32.9,5.73,2.47,-33.1,24.5
2012-12-26 01:26:00,0.0,1.9145,0.0008,-1.00,0.00,-1.0,0.0,138.19,24.65,24.62,36.48,0.04,-272.74,-272.74,-36,548,-930,19.4,1.6,-33.3,19.5,1.7,-32.8,5.73,2.41,-33.1,24.5
2012-12-26 01:27:00,0.0,1.9150,0.0009,-1.00,0.00,-1.0,0.0,138.19,24.65,24.61,36.48,0.04,-272.74,-272.74,-37,548,-930,19.4,1.6,-33.3,19.5,1.7,-33.0,5.73,2.38,-33.1,24.5
2012-12-26 01:28:00,0.0,1.9145,0.0009,-1.00,0.00,-1.0,0.0,138.19,24.66,24.61,36.47,0.04,-272.74,-272.74,-36,548,-930,19.4,1.6,-33.3,19.5,1.7,-32.9,5.73,2.41,-33.1,24.5
2012-12-26 01:29:00,0.0,1.9154,0.0008,-1.00,0.00,-1.0,0.0,138.19,24.66,24.61,36.47,0.04,-272.74,-272.74,-36,548,-930,19.4,1.6,-33.3,19.5,1.7,-32.9,5.73,2.46,-33.1,24.5
2012-12-26 01:30:00,0.0,1.9156,0.0010,-1.00,0.00,-1.0,0.0,138.19,24.66,24.61,36.47,0.04,-272.74,-272.75,-36,548,-930,19.4,1.6,-33.4,19.5,1.7,-32.9,5.73,2.49,-33.1,24.5
2012-12-26 01:31:00,0.0,1.9161,0.0009,-1.00,0.00,-1.0,0.0,138.19,24.67,24.61,36.48,0.04,-272.74,-272.74,-37,548,-930,19.4,1.6,-33.5,19.5,1.7,-33.1,5.73,2.46,-33.1,24.5
2012-12-26 01:32:00,0.0,1.9154,0.0010,-1.00,0.00,-1.0,0.0,138.19,24.67,24.61,36.48,0.04,-272.74,-272.74,-37,548,-930,19.4,1.6,-33.5,19.5,1.7,-33.1,5.73,2.41,-33.1,24.5
2012-12-26 01:33:00,0.0,1.9155,0.0008,-1.00,0.00,-1.0,0.0,138.19,24.68,24.62,36.47,0.04,-272.74,-272.74,-36,548,-930,19.4,1.6,-33.5,19.5,1.7,-33.1,5.73,2.38,-33.1,24.4
2012-12-26 01:34:00,0.0,1.9160,0.0008,-1.00,0.00,-1.0,0.0,138.19,24.68,24.61,36.48,0.04,-272.74,-272.74,-36,549,-930,19.4,1.6,-33.5,19.5,1.7,-33.0,5.73,2.41,-33.1,24.5
2012-12-26 01:35:00,0.0,1.9164,0.0009,-1.00,0.00,-1.0,0.0,138.19,24.69,24.61,36.48,0.04,-272.74,-272.74,-36,548,-930,19.4,1.6,-33.3,19.5,1.7,-32.9,5.73,2.46,-33.1,24.5
2012-12-26 01:36:00,0.0,1.9154,0.0009,-1.00,0.00,-1.0,0.0,138.19,24.68,24.62,36.47,0.04,-272.74,-272.75,-37,548,-930,19.4,1.6,-33.4,19.5,1.7,-32.9,5.73,2.49,-33.1,24.5
2012-12-26 01:37:00,0.0,1.9164,0.0010,-1.00,0.00,-1.0,0.0,138.19,24.67,24.61,36.47,0.04,-272.74,-272.75,-36,548,-930,19.4,1.6,-33.5,19.5,1.7,-33.0,5.73,2.46,-33.0,24.5
2012-12-26 01:38:00,0.0,1.9165,0.0009,-1.00,0.00,-1.0,0.0,138.19,24.68,24.61,36.47,0.04,-272.74,-272.74,-36,548,-930,19.4,1.6,-33.5,19.5,1.7,-33.1,5.73,2.40,-33.0,24.5
2012-12-26 01:39:00,0.0,1.9166,0.0009,-1.00,0.00,-1.0,0.0,138.19,24.68,24.61,36.47,0.04,-272.74,-272.74,-36,548,-930,19.4,1.6,-33.5,19.5,1.7,-32.9,5.73,2.38,-33.0,24.5
2012-12-26 01:40:00,0.0,1.9165,0.0009,-1.00,0.00,-1.0,0.0,138.19,24.69,24.61,36.48,0.04,-272.74,-272.74,-37,548,-930,19.4,1.6,-33.5,19.5,1.7,-32.9,5.73,2.41,-33.0,24.5
2012-12-26 01:41:00,0.0,1.9162,0.0010,-1.00,0.00,-1.0,0.0,138.19,24.69,24.61,36.47,0.04,-272.74,-272.74,-36,548,-930,19.4,1.6,-33.5,19.5,1.7,-33.1,5.73,2.46,-33.0,24.5
2012-12-26 01:42:00,0.0,1.9168,0.0008,-1.00,0.00,-1.0,0.0,138.19,24.70,24.61,36.48,0.04,-272.74,-272.74,-36,548,-930,19.4,1.6,-33.5,19.5,1.7,-33.1,5.73,2.49,-33.0,24.5
2012-12-26 01:43:00,0.0,1.9170,0.0009,-1.00,0.00,-1.0,0.0,138.19,24.70,24.61,36.48,0.04,-272.74,-272.74,-36,548,-930,19.4,1.6,-33.4,19.5,1.6,-33.1,5.73,2.46,-33.0,24.5
2012-12-26 01:44:00,0.0,1.9168,0.0011,-1.00,0.00,-1.0,0.0,138.19,24.69,24.61,36.47,0.04,-272.74,-272.74,-36,548,-930,19.4,1.6,-33.6,19.5,1.7,-33.1,5.73,2.40,-33.0,24.5
2012-12-26 01:45:00,0.0,1.9158,0.0011,-1.00,0.00,-1.0,0.0,138.19,24.70,24.61,36.47,0.04,-272.74,-272.74,-37,548,-930,19.4,1.6,-33.6,19.5,1.7,-33.1,5.73,2.39,-33.0,24.5
2012-12-26 01:46:00,0.0,1.9164,0.0008,-1.00,0.00,-1.0,0.0,138.19,24.70,24.61,36.48,0.04,-272.74,-272.74,-36,548,-930,19.4,1.6,-33.7,19.5,1.6,-33.3,5.73,2.41,-32.9,24.4
2012-12-26 01:47:00,0.0,1.9167,0.0009,-1.00,0.00,-1.0,0.0,138.19,24.70,24.61,36.47,0.04,-272.74,-272.74,-36,548,-930,19.4,1.6,-33.8,19.5,1.6,-33.3,5.73,2.46,-32.9,24.5
2012-12-26 01:48:00,0.0,1.9160,0.0007,-1.00,0.00,-1.0,0.0,138.19,24.70,24.61,36.47,0.04,-272.74,-272.74,-36,548,-930,19.4,1.6,-33.7,19.5,1.6,-33.2,5.73,2.49,-32.9,24.5
2012-12-26 01:49:00,0.0,1.9158,0.0010,-1.00,0.00,-1.0,0.0,138.19,24.70,24.61,36.48,0.04,-272.74,-272.74,-37,549,-930,19.4,1.6,-33.7,19.5,1.6,-33.3,5.73,2.46,-32.9,24.5
2012-12-26 01:50:00,0.0,1.9153,0.0009,-1.00,0.00,-1.0,0.0,138.19,24.71,24.61,36.47,0.04,-272.74,-272.74,-37,548,-930,19.4,1.6,-33.6,19.5,1.6,-33.3,5.73,2.42,-32.8,24.5
2012-12-26 01:51:00,0.0,1.9148,0.0011,-1.00,0.00,-1.0,0.0,138.19,24.71,24.61,36.47,0.04,-272.74,-272.75,-36,548,-930,19.4,1.6,-33.7,19.5,1.6,-33.3,5.73,2.38,-32.8,24.5
2012-12-26 01:52:00,0.0,1.9131,0.0011,-1.00,0.00,-1.0,0.0,138.19,24.70,24.61,36.48,0.04,-272.74,-272.74,-36,548,-930,19.4,1.6,-33.6,19.5,1.6,-33.2,5.73,2.40,-32.8,24.5
2012-12-26 01:53:00,0.0,1.9134,0.0008,-1.00,0.00,-1.0,0.0,138.19,24.69,24.61,36.47,0.04,-272.74,-272.74,-36,548,-930,19.4,1.7,-33.1,19.5,1.7,-32.8,5.73,2.45,-32.8,24.5
2012-12-26 01:54:00,0.0,1.9130,0.0008,-1.00,0.00,-1.0,0.0,138.19,24.69,24.61,36.48,0.04,-272.74,-272.74,-37,548,-930,19.4,1.7,-33.0,19.5,1.7,-32.6,5.73,2.48,-32.8,24.5
2012-12-26 01:55:00,0.0,1.9132,0.0008,-1.00,0.00,-1.0,0.0,138.19,24.69,24.61,36.47,0.04,-272.74,-272.74,-36,548,-930,19.4,1.7,-32.8,19.5,1.8,-32.4,5.73,2.47,-32.8,24.5
2012-12-26 01:56:00,0.0,1.9134,0.0009,-1.00,0.00,-1.0,0.0,138.19,24.69,24.61,36.48,0.04,-272.74,-272.74,-36,548,-930,19.4,1.7,-32.6,19.5,1.8,-32.2,5.73,2.43,-32.8,24.5
2012-12-26 01:57:00,0.0,1.9135,0.0007,-1.00,0.00,-1.0,0.0,138.19,24.69,24.61,36.48,0.04,-272.74,-272.75,-36,549,-930,19.4,1.8,-32.5,19.5,1.8,-32.1,5.73,2.39,-32.8,24.5
2012-12-26 01:58:00,0.0,1.9132,0.0009,-1.00,0.00,-1.0,0.0,138.19,24.68,24.61,36.47,0.04,-272.74,-272.74,-37,549,-930,19.4,1.8,-32.5,19.5,1.8,-32.1,5.73,2.39,-32.8,24.5
2012-12-26 01:59:00,0.0,1.9130,0.0009,-1.00,0.00,-1.0,0.0,138.19,24.68,24.61,36.47,0.04,-272.74,-272.74,-37,548,-930,19.4,1.7,-32.6,19.5,1.8,-32.1,5.73,2.43,-32.8,24.5
2012-12-26 02:00:00,0.0,1.9135,0.0008,-1.00,0.00,-1.0,0.0,138.19,24.68,24.61,36.47,0.04,-272.74,-272.74,-36,548,-930,19.4,1.7,-32.6,19.5,1.8,-32.1,5.73,2.47,-32.8,24.5
2012-12-26 02:01:00,0.0,1.9139,0.0010,-1.00,0.00,-1.0,0.0,138.19,24.69,24.61,36.47,0.04,-272.74,-272.74,-36,549,-930,19.5,1.7,-32.6,19.5,1.8,-32.2,5.73,2.48,-32.7,24.5
2012-12-26 02:02:00,0.0,1.9142,0.0008,-1.00,0.00,-1.0,0.0,138.19,24.69,24.61,36.47,0.04,-272.74,-272.74,-36,549,-930,19.5,1.7,-32.7,19.5,1.8,-32.3,5.73,2.45,-32.7,24.5
2012-12-26 02:03:00,0.0,1.9141,0.0008,-1.00,0.00,-1.0,0.0,138.19,24.69,24.61,36.48,0.04,-272.74,-272.74,-37,548,-930,19.4,1.7,-32.8,19.5,1.8,-32.4,5.73,2.40,-32.7,24.5
2012-12-26 02:04:00,0.0,1.9139,0.0010,-1.00,0.00,-1.0,0.0,138.19,24.69,24.61,36.47,0.04,-272.75,-272.74,-37,549,-930,19.5,1.7,-32.8,19.5,1.8,-32.4,5.73,2.39,-32.7,24.5
2012-12-26 02:05:00,0.0,1.9144,0.0009,-1.00,0.00,-1.0,0.0,138.19,24.69,24.61,36.47,0.04,-272.74,-272.74,-36,549,-930,19.5,1.7,-32.8,19.5,1.8,-32.4,5.73,2.42,-32.7,24.5
2012-12-26 02:06:00,0.0,1.9140,0.0007,-1.00,0.00,-1.0,0.0,138.19,24.69,24.61,36.47,0.04,-272.74,-272.74,-36,549,-930,19.4,1.7,-32.9,19.5,1.7,-32.6,5.73,2.47,-32.7,24.5
2012-12-26 02:07:00,0.0,1.9155,0.0010,-1.00,0.00,-1.0,0.0,138.19,24.70,24.62,36.48,0.04,-272.75,-272.74,-36,549,-931,19.4,1.7,-33.0,19.5,1.7,-32.6,5.73,2.49,-32.7,24.5
2012-12-26 02:08:00,0.0,1.9137,0.0011,-1.00,0.00,-1.0,0.0,138.19,24.70,24.61,36.47,0.04,-272.74,-272.74,-37,549,-931,19.5,1.7,-33.1,19.5,1.7,-32.6,5.73,2.45,-32.7,24.5
2012-12-26 02:09:00,0.0,1.9128,0.0008,-1.00,0.00,-1.0,0.0,138.19,24.70,24.61,36.47,0.04,-272.74,-272.74,-36,549,-931,19.5,1.7,-32.9,19.5,1.7,-32.5,5.73,2.40,-32.7,24.5
2012-12-26 02:10:00,0.0,1.9121,0.0008,-1.00,0.00,-1.0,0.0,138.19,24.70,24.62,36.48,0.04,-272.74,-272.74,-36,549,-931,19.5,1.7,-32.7,19.5,1.8,-32.3,5.73,2.39,-32.7,24.5
2012-12-26 02:11:00,0.0,1.9132,0.0009,-1.00,0.00,-1.0,0.0,138.19,24.71,24.61,36.47,0.04,-272.74,-272.75,-36,549,-931,19.4,1.7,-32.6,19.5,1.8,-32.3,5.73,2.42,-32.7,24.5
2012-12-26 02:12:00,0.0,1.9128,0.0010,-1.00,0.00,-1.0,0.0,138.19,24.71,24.61,36.47,0.04,-272.74,-272.74,-37,549,-930,19.4,1.7,-32.8,19.5,1.8,-32.4,5.73,2.47,-32.7,24.5
2012-12-26 02:13:00,0.0,1.9128,0.0010,-1.00,0.00,-1.0,0.0,138.19,24.71,24.61,36.47,0.04,-272.74,-272.74,-37,549,-930,19.4,1.7,-32.8,19.5,1.8,-32.4,5.73,2.49,-32.7,24.5
2012-12-26 02:14:00,0.0,1.9128,0.0009,-1.00,0.00,-1.0,0.0,138.19,24.72,24.61,36.48,0.04,-272.74,-272.74,-36,549,-930,19.4,1.7,-33.0,19.5,1.7,-32.6,5.73,2.46,-32.7,24.5
2012-12-26 02:15:00,0.0,1.9127,0.0009,-1.00,0.00,-1.0,0.0,138.19,24.72,24.61,36.47,0.04,-272.74,-272.75,-36,549,-931,19.4,1.7,-33.1,19.5,1.7,-32.6,5.73,2.41,-32.7,24.5
2012-12-26 02:16:00,0.0,1.9128,0.0009,-1.00,0.00,-1.0,0.0,138.19,24.72,24.61,36.48,0.04,-272.74,-272.74,-37,549,-931,19.4,1.7,-33.0,19.5,1.7,-32.6,5.73,2.38,-32.7,24.5
2012-12-26 02:17:00,0.0,1.9128,0.0008,-1.00,0.00,-1.0,0.0,138.19,24.72,24.61,36.47,0.04,-272.74,-272.74,-37,549,-930,19.5,1.7,-32.7,19.5,1.8,-32.3,5.73,2.41,-32.6,24.5
2012-12-26 02:18:00,0.0,1.9126,0.0009,-1.00,0.00,-1.0,0.0,138.19,24.71,24.61,36.47,0.04,-272.74,-272.74,-36,549,-931,19.5,1.7,-32.5,19.5,1.8,-32.1,5.73,2.46,-32.6,24.5
2012-12-26 02:19:00,0.0,1.9128,0.0010,-1.00,0.00,-1.0,0.0,138.19,24.72,24.61,36.47,0.04,-272.74,-272.74,-36,549,-931,19.5,1.8,-32.5,19.5,1.8,-32.1,5.73,2.48,-32.6,24.5